Regional Weather Roundup
Issued by NWS

Home | Current Version | Previous Version | Graphics & Text | Print | Product List | Glossary On
Versions: 1 2 3 4 5 6 7 8 9 10 11 12 13 14 15 16 17 18 19 20 21 22 23 24 25 26 27 28 29 30 31 32 33 34 35 36 37 38 39 40 41 42 43 44 45 46 47 48 49 50
000
ASUS43 KMKX 210300
RWRWI

WISCONSIN REGIONAL WEATHER ROUNDUP
NATIONAL WEATHER SERVICE MILWAUKEE/SULLIVAN WI
1000 PM CDT SUN APR 20 2014

NOTE: "FAIR" INDICATES FEW OR NO CLOUDS BELOW 12,000 FEET WITH NO
SIGNIFICANT WEATHER AND/OR OBSTRUCTIONS TO VISIBILITY.

WIZ001-002-006>008-014>016-023>028-210400-
NORTHWEST WISCONSIN

CITY           SKY/WX    TMP DP  RH WIND       PRES   REMARKS
SUPERIOR ARPT  FAIR      38  33  80 NE6       29.98S WCI  34
ASHLAND        CLEAR     37  36  96 CALM      30.01F
HAYWARD        CLEAR     45  32  60 E5        30.00S
SIREN          CLEAR     48  34  58 CALM      29.98S
RICE LAKE      CLEAR     60  49  67 E6        30.00R
LADYSMITH      CLEAR     56  51  83 SE3       30.01R
EAU CLAIRE     NOT AVBL
MENOMONIE      PTCLDY    57  53  85 E3        29.98S
NEW RICHMOND   CLEAR     60  52  75 SE3       29.98S
OSCEOLA        CLEAR     53  39  58 CALM      29.99S
$$

WIZ003>005-009-010-017-018-210400-
NORTH CENTRAL WISCONSIN

CITY           SKY/WX    TMP DP  RH WIND       PRES   REMARKS
WOODRUFF       MOCLDY    49  42  78 CALM      30.03S
RHINELANDER    CLOUDY    49  48  97 CALM      30.03S
EAGLE RIVER    CLEAR     49  47  95 CALM      30.02S
LAND O LAKES   PTCLDY    39  33  77 N3        30.04S
PHILLIPS       PTCLDY    50  48  92 SE3       30.01S
TOMAHAWK       CLOUDY    48  46  95 CALM      30.02R FOG
MEDFORD        CLOUDY    54  52  94 CALM      30.00F
MERRILL        PTCLDY    49  49  99 CALM      30.01S FOG
$$

WIZ029-030-035-036-043>047-210400-
CENTRAL WISCONSIN

CITY           SKY/WX    TMP DP  RH WIND       PRES   REMARKS
WAUSAU         MOCLDY    55  52  89 S3        29.98F
MOSINEE        NOT AVBL
MARSHFIELD     CLOUDY    55  52  89 SE3       29.99F
STEVENS POINT  MOCLDY    51  49  95 CALM      30.01S
WAUPACA        MOCLDY    55  54  94 CALM      30.01S FOG
WAUTOMA        NOT AVBL
WISC RAPIDS    MOCLDY    53  52  96 CALM      30.01F FOG
CAMP DOUGLAS   FOG       52  52 100 N1        29.99F VSB 1/4
$$

WIZ011>013-019>022-031-037>040-048>050-210400-
NORTHEAST WISCONSIN

CITY           SKY/WX    TMP DP  RH WIND       PRES   REMARKS
ANTIGO         CLOUDY    49  49  97 CALM      30.02S FOG
STURGEON BAY   CLOUDY    48  43  81 S5        30.03S
GREEN BAY      CLOUDY    52  50  93 CALM      30.01F FOG
MANITOWOC      NOT AVBL
APPLETON       NOT AVBL
CLINTONVILLE   CLOUDY    54  52  94 CALM      30.01S
OSHKOSH        CLOUDY    53  48  83 CALM      30.00F
$$

WIZ032>034-041-042-053>061-210400-
SOUTHWEST WISCONSIN

CITY           SKY/WX    TMP DP  RH WIND       PRES   REMARKS
LA CROSSE      CLOUDY    55  53  93 CALM      29.97S FOG
SPARTA         MOCLDY    54  53  96 CALM      29.99S
VIROQUA        MOCLDY    58  56  93 SE7       29.97S
BOSCOBEL       CLOUDY    59  55  87 NE3       29.97R
PRAIRIE DU CHI MOCLDY    56  55  94 NW5       29.96R FOG
PLATTEVILLE    FAIR      65  46  48 S10       29.98S
$$

WIZ056-057-062-063-064-067-068-210400-
SOUTH CENTRAL WISCONSIN

CITY           SKY/WX    TMP DP  RH WIND       PRES   REMARKS
BARABOO/DELLS  CLOUDY    56  53  88 CALM      30.00S
LONE ROCK      NOT AVBL
WATERTOWN      CLOUDY    62  49  63 CALM      29.99R
MADISON        CLOUDY    60  52  74 NW6       30.00R
MIDDLETON      CLOUDY    61  52  71 N10       30.00R
MONROE         MOCLDY    67  45  44 S9        29.99R
JANESVILLE     MOCLDY    68  37  32 S6        29.98F
$$

WIZ051-052-058>065-066-070>072-210400-
SOUTHEAST WISCONSIN

CITY           SKY/WX    TMP DP  RH WIND       PRES   REMARKS
MILWAUKEE      CLOUDY    62  39  42 S8        30.01S
WAUKESHA       PTCLDY    63  39  42 S6        30.01S
MILWAUKEE/TIMM CLEAR     63  36  36 S6        30.01S
RACINE         PTCLDY    61  38  42 S14       30.03S
BURLINGTON     PTCLDY    59  42  52 SW6       30.00F
KENOSHA        CLEAR     57  40  52 S7        30.01F
FOND DU LAC    CLOUDY    55  48  77 CALM      30.00S
SHEBOYGAN      CLOUDY    51  38  60 SE3       30.01F
WEST BEND      CLOUDY    54  41  62 CALM      30.00F
JUNEAU         LGT RAIN  59  45  60 E3        30.01R
$$

LSZ147-162-210400-
LAKE SUPERIOR

STATION/POSITION TIME  TEMP    WIND        PRES    WAVE
                       AIR SEA DIR/SP/G            HT/PER
                 (UTC) (F)     (DEG/KT/KT) (MB)    (FT/S)
DEVILS ISLAND    0200   58     160/  9/ 10 1015.9F
PORT WING        0200   35      CALM  /  2 1015.6
SAXON HARBOR     0240           CALM  /  1 1015.9F
$$

LMZ867-665-643>646-210400-
LAKE MICHIGAN

STATION/POSITION TIME  TEMP    WIND        PRES    WAVE
                       AIR SEA DIR/SP/G            HT/PER
                 (UTC) (F)     (DEG/KT/KT) (MB)    (FT/S)
NORTHPORT PIER   0200   46     190/  4/  7 1016.6S
SISTER BAY       0209   48        CALM       N/A
KEWAUNEE LAKESHO 0200   40      CALM  /  2 1017.6F
SHEBOYGAN LAKESH 0200   51     110/  8/  9 1017.0F
PORT WASHINGTON  0240   45      40/  5/  5 1016.6F
MILWAUKEE LAKESH 0200   52     140/  3/  4   N/A
KENOSHA   LAKESH 0200   53     170/ 17/ 20   N/A
$$

TC  - TEMPERATURE IN CELSIUS
VSB - VISIBILITY IN STATUTE MILES
WCI - WIND CHILL INDEX
HX  - HEAT INDEX




USA.gov is the U.S. government's official web portal to all federal, state and local government web resources and services.